Weather History for Pendleton, OR

Change the Weather History Date:

Wednesday, June 26, 2013

  Actual Average Record
Temperature  
Mean Temperature 63 °F 68 °F  
Max Temperature 71 °F 82 °F 104 °F (1925)
Min Temperature 55 °F 53 °F 39 °F (1976)
Degree Days  
Heating Degree Days 2 2  
Month to date heating degree days 80 79  
Since 1 June heating degree days 80 79  
Since 1 July heating degree days 5102 5272  
Cooling Degree Days 0 4  
Month to date cooling degree days 47 61  
Year to date cooling degree days 78 84  
Since 1 June cooling degree days 47 61  
Growing Degree Days 13 (Base 50)    
Moisture  
Dew Point 58 °F    
Average Humidity 81    
Maximum Humidity 100    
Minimum Humidity 61    
Precipitation  
Precipitation 0.09 in 0.02 in 1.17 in (1942)
Month to date precipitation 0.88 0.91  
Year to date precipitation 4.91 7.32  
Snow  
Snow 0.00 in 0.00 in 0.00 in (2002)
Month to date snowfall 0.0 0.0  
Year to date snowfall 0.2 7.7  
Since 1 July snowfall 2.0 15.2  
Snow Depth 0.00 in    
Sea Level Pressure  
Sea Level Pressure 29.98 in    
Wind  
Wind Speed 3 mph (SW)    
Max Wind Speed 13 mph    
Max Gust Speed 17 mph    
Visibility 10 miles    
Events Rain    
T = Trace of Precipitation, MM = Missing Value Source: NWS Daily Summary

Daily Weather History Graph

Daily Weather History Graph

Search for Another Location

Airport:

Trip Planner

Search our weather history database for the weather conditions in past years. The results will help you decide how hot, cold, wet, or windy it might be!

Date:

Astronomy

Jun. 26, 2013 Rise Set
Actual Time 5:07 AM PDT 8:49 PM PDT
Civil Twilight 4:29 AM PDT 9:27 PM PDT
Nautical Twilight 3:38 AM PDT 10:18 PM PDT
Astronomical Twilight 2:28 AM PDT 11:28 PM PDT
Moon 11:00 PM PDT (6/26) 9:17 AM PDT (6/26)
Length of Visible Light 16h 57m
Length of Day
15h 41m
Waning Gibbous, 84% of the Moon is Illuminated
Jun 26
Waning Gibbous
Jun 29
Last Quarter
Jul 8
New
Jul 15
First Quarter
Jul 22
Full

Hourly Weather History & Observations

Time (PDT) Temp. Dew Point Humidity Pressure Visibility Wind Dir Wind Speed Gust Speed Precip Events Conditions
12:53 AM 57.9 °F 55.9 °F 93% 29.88 in 10.0 mi Calm Calm - N/A   Mostly Cloudy
1:53 AM 55.9 °F 54.0 °F 93% 29.90 in 10.0 mi Calm Calm - N/A   Clear
2:53 AM 55.0 °F 54.0 °F 96% 29.90 in 10.0 mi Calm Calm - N/A   Scattered Clouds
3:53 AM 55.9 °F 54.0 °F 93% 29.90 in 10.0 mi Calm Calm - N/A   Mostly Cloudy
4:53 AM 55.0 °F 54.0 °F 96% 29.91 in 10.0 mi SSW 3.5 mph - N/A   Scattered Clouds
5:53 AM 55.9 °F 55.0 °F 97% 29.92 in 10.0 mi Calm Calm - N/A   Mostly Cloudy
6:53 AM 57.0 °F 55.0 °F 93% 29.92 in 10.0 mi SE 4.6 mph - N/A   Partly Cloudy
7:53 AM 57.9 °F 55.9 °F 93% 29.93 in 10.0 mi Calm Calm - N/A   Partly Cloudy
8:53 AM 63.0 °F 54.0 °F 72% 29.93 in 10.0 mi Variable 3.5 mph - N/A   Clear
9:53 AM 66.9 °F 55.0 °F 66% 29.93 in 10.0 mi Calm Calm - N/A   Overcast
10:53 AM 69.1 °F 55.9 °F 63% 29.92 in 10.0 mi NNE 4.6 mph - 0.00 in   Overcast
11:53 AM 69.1 °F 57.9 °F 68% 29.94 in 10.0 mi SSW 5.8 mph - 0.00 in   Mostly Cloudy
12:53 PM 68.0 °F 57.9 °F 70% 29.95 in 10.0 mi NW 11.5 mph - 0.00 in Rain Light Rain
1:53 PM 66.0 °F 55.9 °F 70% 29.98 in 10.0 mi WNW 6.9 mph - 0.00 in Rain Light Rain
2:53 PM 64.0 °F 61.0 °F 90% 30.00 in 6.0 mi SW 5.8 mph - 0.05 in Rain Light Rain
3:53 PM 66.0 °F 60.1 °F 81% 30.00 in 10.0 mi Calm Calm - 0.04 in Rain Light Rain
4:33 PM 66.0 °F 60.1 °F 81% 30.03 in 10.0 mi WNW 3.5 mph - 0.00 in Rain Light Rain
4:53 PM 64.9 °F 60.1 °F 84% 30.01 in 10.0 mi Calm Calm - 0.00 in   Overcast
5:20 PM 64.9 °F 61.0 °F 87% 30.04 in 10.0 mi WNW 8.1 mph - N/A   Overcast
5:34 PM 64.9 °F 60.1 °F 84% 30.04 in 10.0 mi WNW 4.6 mph - N/A   Overcast
5:42 PM 64.9 °F 60.1 °F 84% 30.04 in 10.0 mi WNW 4.6 mph - N/A   Overcast
5:53 PM 64.9 °F 60.1 °F 84% 30.01 in 10.0 mi WNW 3.5 mph - N/A   Overcast
6:53 PM 64.9 °F 60.1 °F 84% 30.03 in 10.0 mi Calm Calm - 0.00 in   Overcast
7:53 PM 64.0 °F 61.0 °F 90% 30.04 in 10.0 mi SE 4.6 mph - 0.00 in   Mostly Cloudy
8:53 PM 63.0 °F 61.0 °F 93% 30.04 in 10.0 mi East 3.5 mph - N/A   Clear
9:53 PM 61.0 °F 60.1 °F 97% 30.06 in 10.0 mi SE 3.5 mph - N/A   Clear
10:53 PM 61.0 °F 60.1 °F 97% 30.05 in 10.0 mi SSE 5.8 mph - N/A   Clear
11:53 PM 57.9 °F 57.0 °F 97% 30.05 in 9.0 mi ESE 4.6 mph - N/A   Clear